UAL3931 KLAX-KSFO

Flight info

Callsign UAL3931
Flight time 0h 53m
Altitude 38000
Route SUMMR2 STOKD SERFR SERFR4
Aircraft B772/H-SDE2E3FGHIJ5LORVWXY/LB1D1

Departure

Time 2026-05-04 17:43
Airport Los Angeles International Airport (KLAX)

Arrival

Time 2026-05-04 18:36
Airport San Francisco International Airport (KSFO)
Time Latitude Longitude Altitude Speed Heading
2026-05-04 17:31 33.94931 -118.39954 97 ft 6 kts 68°
2026-05-04 17:32 33.94943 -118.39936 97 ft 0 kts 46°
2026-05-04 17:37 33.94945 -118.39933 97 ft 4 kts 45°
2026-05-04 17:38 33.95037 -118.39946 100 ft 17 kts 296°
2026-05-04 17:38 33.95036 -118.40000 98 ft 0 kts 262°
2026-05-04 17:42 33.95036 -118.40001 98 ft 0 kts 262°
2026-05-04 17:42 33.95026 -118.40106 100 ft 39 kts 263°
2026-05-04 17:43 33.94944 -118.40894 103 ft 148 kts 263°
2026-05-04 17:43 33.94795 -118.42298 985 ft 171 kts 262°
2026-05-04 17:43 33.94649 -118.43737 2134 ft 182 kts 262°
2026-05-04 17:43 33.94496 -118.45311 2807 ft 198 kts 263°
2026-05-04 17:44 33.94332 -118.47094 3097 ft 232 kts 266°
2026-05-04 17:44 33.94254 -118.49137 3703 ft 252 kts 268°
2026-05-04 17:44 33.94204 -118.51269 4478 ft 256 kts 268°
2026-05-04 17:44 33.94063 -118.53425 5210 ft 260 kts 264°
2026-05-04 17:45 33.93876 -118.55606 5998 ft 262 kts 264°
2026-05-04 17:45 33.93693 -118.57797 6770 ft 265 kts 264°
2026-05-04 17:45 33.93514 -118.60007 7570 ft 266 kts 265°
2026-05-04 17:45 33.93336 -118.62250 8293 ft 270 kts 264°
2026-05-04 17:46 33.93156 -118.64520 9035 ft 274 kts 264°
2026-05-04 17:46 33.92978 -118.66814 9836 ft 275 kts 264°
2026-05-04 17:46 33.92801 -118.69102 10554 ft 282 kts 264°
2026-05-04 17:46 33.92610 -118.71553 10919 ft 304 kts 263°
2026-05-04 17:47 33.92410 -118.74116 11662 ft 308 kts 263°
2026-05-04 17:47 33.92211 -118.76689 12014 ft 309 kts 262°
2026-05-04 17:47 33.92010 -118.79254 12001 ft 307 kts 262°
2026-05-04 17:47 33.91808 -118.81818 12007 ft 310 kts 262°
2026-05-04 17:48 33.91653 -118.84423 12096 ft 314 kts 267°
2026-05-04 17:48 33.91721 -118.87079 12986 ft 319 kts 270°
2026-05-04 17:48 33.91844 -118.89731 14138 ft 317 kts 269°
2026-05-04 17:48 33.91954 -118.92388 15215 ft 317 kts 268°
2026-05-04 17:49 33.92044 -118.95044 16197 ft 318 kts 268°
2026-05-04 17:49 33.92125 -118.97718 17128 ft 321 kts 267°
2026-05-04 17:49 33.92247 -119.00386 17976 ft 323 kts 272°
2026-05-04 17:49 33.92920 -119.03054 18723 ft 342 kts 288°
2026-05-04 17:50 33.94149 -119.05563 19575 ft 350 kts 294°
2026-05-04 17:50 33.95457 -119.08008 20355 ft 354 kts 294°
2026-05-04 17:50 33.96793 -119.10521 21113 ft 358 kts 293°
2026-05-04 17:50 33.98128 -119.13078 21846 ft 361 kts 292°
2026-05-04 17:51 33.99464 -119.15662 22598 ft 365 kts 292°
2026-05-04 17:51 34.00783 -119.18101 23233 ft 373 kts 297°
2026-05-04 17:51 34.02659 -119.20279 23817 ft 395 kts 314°
2026-05-04 17:51 34.04859 -119.22107 24273 ft 405 kts 315°
2026-05-04 17:52 34.07145 -119.24010 24946 ft 409 kts 314°
2026-05-04 17:52 34.09480 -119.25973 25710 ft 410 kts 313°
2026-05-04 17:52 34.11824 -119.27964 26368 ft 414 kts 313°
2026-05-04 17:52 34.14185 -119.29986 26973 ft 419 kts 312°
2026-05-04 17:53 34.16599 -119.32063 27584 ft 423 kts 312°
2026-05-04 17:53 34.18972 -119.34108 28144 ft 427 kts 311°
2026-05-04 17:53 34.21435 -119.36233 28724 ft 431 kts 311°
2026-05-04 17:53 34.23881 -119.38342 29280 ft 434 kts 311°
2026-05-04 17:54 34.26310 -119.40440 29791 ft 437 kts 310°
2026-05-04 17:54 34.28801 -119.42594 30303 ft 440 kts 310°
2026-05-04 17:54 34.31298 -119.44752 30774 ft 444 kts 310°
2026-05-04 17:54 34.33823 -119.46938 31198 ft 447 kts 310°
2026-05-04 17:55 34.36353 -119.49127 31618 ft 451 kts 310°
2026-05-04 17:55 34.38921 -119.51354 32045 ft 453 kts 309°
2026-05-04 17:55 34.41489 -119.53619 32414 ft 452 kts 307°
2026-05-04 17:55 34.43729 -119.55984 32714 ft 445 kts 301°
2026-05-04 17:56 34.45861 -119.58586 33098 ft 443 kts 299°
2026-05-04 17:56 34.47962 -119.61293 33429 ft 445 kts 298°
2026-05-04 17:56 34.50008 -119.63946 33852 ft 444 kts 298°
2026-05-04 17:56 34.52108 -119.66642 34384 ft 443 kts 298°
2026-05-04 17:57 34.54205 -119.69298 34881 ft 442 kts 299°
2026-05-04 17:57 34.56308 -119.71917 35439 ft 439 kts 299°
2026-05-04 17:57 34.58385 -119.74492 35946 ft 436 kts 299°
2026-05-04 17:57 34.60507 -119.77117 36411 ft 435 kts 300°
2026-05-04 17:58 34.62515 -119.79602 36713 ft 435 kts 300°
2026-05-04 17:58 34.64612 -119.82191 37214 ft 432 kts 300°
2026-05-04 17:58 34.66708 -119.84777 37804 ft 426 kts 300°
2026-05-04 17:58 34.68736 -119.87278 38090 ft 420 kts 300°
2026-05-04 17:59 34.72798 -119.92321 38049 ft 418 kts 299°
2026-05-04 18:00 34.78928 -119.99967 38055 ft 424 kts 300°
2026-05-04 18:00 34.82989 -120.05023 38062 ft 427 kts 300°
2026-05-04 18:01 34.87093 -120.10144 38066 ft 430 kts 301°
2026-05-04 18:01 34.91269 -120.15343 38053 ft 433 kts 301°
2026-05-04 18:02 34.96867 -120.22356 38064 ft 440 kts 301°
2026-05-04 18:02 35.01140 -120.27722 38076 ft 449 kts 302°
2026-05-04 18:03 35.05450 -120.33122 38088 ft 456 kts 302°
2026-05-04 18:03 35.09865 -120.38619 38075 ft 465 kts 304°
2026-05-04 18:04 35.14634 -120.44007 38079 ft 474 kts 307°
2026-05-04 18:05 35.21913 -120.52033 38073 ft 476 kts 306°
2026-05-04 18:05 35.26787 -120.57487 38079 ft 477 kts 306°
2026-05-04 18:06 35.33955 -120.65570 38065 ft 477 kts 306°
2026-05-04 18:06 35.38845 -120.71092 38072 ft 476 kts 306°
2026-05-04 18:07 35.43684 -120.76562 38064 ft 475 kts 306°
2026-05-04 18:07 35.48490 -120.82005 38090 ft 475 kts 307°
2026-05-04 18:08 35.53599 -120.87027 38078 ft 484 kts 313°
2026-05-04 18:08 35.59096 -120.91942 38078 ft 488 kts 314°
2026-05-04 18:09 35.69759 -121.01695 38103 ft 464 kts 313°
2026-05-04 18:10 35.74852 -121.06470 38101 ft 466 kts 313°
2026-05-04 18:10 35.79964 -121.11259 37845 ft 455 kts 313°
2026-05-04 18:11 35.82466 -121.13598 37566 ft 448 kts 312°
2026-05-04 18:11 35.84892 -121.15868 37230 ft 443 kts 312°
2026-05-04 18:11 35.87265 -121.18090 36693 ft 430 kts 311°
2026-05-04 18:11 35.89496 -121.20174 35800 ft 421 kts 311°
2026-05-04 18:12 35.91808 -121.22347 34696 ft 416 kts 310°
2026-05-04 18:12 35.94079 -121.24490 33571 ft 413 kts 309°
2026-05-04 18:12 35.96176 -121.26468 32518 ft 409 kts 309°
2026-05-04 18:12 35.98046 -121.28235 31651 ft 411 kts 309°
2026-05-04 18:13 36.00312 -121.30376 31294 ft 407 kts 310°
2026-05-04 18:13 36.02552 -121.32478 30873 ft 403 kts 311°
2026-05-04 18:13 36.06987 -121.36661 30074 ft 399 kts 313°
2026-05-04 18:14 36.09284 -121.38623 29687 ft 403 kts 317°
2026-05-04 18:14 36.11618 -121.40440 29268 ft 403 kts 319°
2026-05-04 18:14 36.13981 -121.42228 28839 ft 403 kts 320°
2026-05-04 18:15 36.18694 -121.45791 27953 ft 402 kts 320°
2026-05-04 18:15 36.23419 -121.49435 27085 ft 399 kts 321°
2026-05-04 18:15 36.25762 -121.51274 26669 ft 398 kts 321°
2026-05-04 18:16 36.28099 -121.53101 26237 ft 397 kts 322°
2026-05-04 18:16 36.30418 -121.54911 25793 ft 396 kts 322°
2026-05-04 18:16 36.32744 -121.56729 25365 ft 394 kts 323°
2026-05-04 18:17 36.37357 -121.60346 24543 ft 390 kts 324°
2026-05-04 18:17 36.39643 -121.62142 24127 ft 389 kts 324°
2026-05-04 18:17 36.44170 -121.65699 23297 ft 386 kts 325°
2026-05-04 18:18 36.46429 -121.67473 22869 ft 376 kts 326°
2026-05-04 18:18 36.48574 -121.69156 22447 ft 353 kts 325°
2026-05-04 18:18 36.50586 -121.70738 22067 ft 332 kts 325°
2026-05-04 18:18 36.52481 -121.72232 21719 ft 314 kts 325°
2026-05-04 18:19 36.56032 -121.75040 21060 ft 300 kts 325°
2026-05-04 18:19 36.57840 -121.76475 20758 ft 318 kts 325°
2026-05-04 18:19 36.59762 -121.78003 20397 ft 338 kts 326°
2026-05-04 18:20 36.61796 -121.79618 19996 ft 352 kts 326°
2026-05-04 18:20 36.63877 -121.81266 19569 ft 355 kts 326°
2026-05-04 18:20 36.65962 -121.82916 19142 ft 355 kts 326°
2026-05-04 18:20 36.68043 -121.84566 18715 ft 354 kts 326°
2026-05-04 18:21 36.70120 -121.86215 18275 ft 352 kts 326°
2026-05-04 18:21 36.72116 -121.87799 17844 ft 328 kts 326°
2026-05-04 18:21 36.73986 -121.89243 17451 ft 306 kts 332°
2026-05-04 18:21 36.75991 -121.90089 17131 ft 306 kts 347°
2026-05-04 18:22 36.78096 -121.90625 16741 ft 312 kts 348°
2026-05-04 18:22 36.80251 -121.91180 16370 ft 320 kts 348°
2026-05-04 18:22 36.82443 -121.91763 15970 ft 323 kts 348°
2026-05-04 18:22 36.84640 -121.92358 15576 ft 322 kts 347°
2026-05-04 18:23 36.86824 -121.92959 15182 ft 321 kts 348°
2026-05-04 18:23 36.88779 -121.93503 14831 ft 321 kts 348°
2026-05-04 18:23 36.90953 -121.94111 14442 ft 320 kts 348°
2026-05-04 18:23 36.93123 -121.94718 14047 ft 319 kts 348°
2026-05-04 18:24 36.95285 -121.95329 13656 ft 318 kts 347°
2026-05-04 18:24 36.97417 -121.96075 13259 ft 318 kts 344°
2026-05-04 18:24 36.99520 -121.96906 12865 ft 317 kts 343°
2026-05-04 18:24 37.01589 -121.97740 12476 ft 316 kts 343°
2026-05-04 18:25 37.03706 -121.98589 12077 ft 315 kts 343°
2026-05-04 18:25 37.05767 -121.99409 11683 ft 314 kts 344°
2026-05-04 18:25 37.07849 -122.00231 11290 ft 313 kts 343°
2026-05-04 18:25 37.09925 -122.01048 10899 ft 312 kts 343°
2026-05-04 18:26 37.11977 -122.01852 10515 ft 311 kts 343°
2026-05-04 18:26 37.14041 -122.02660 10168 ft 309 kts 343°
2026-05-04 18:26 37.16056 -122.03451 10030 ft 294 kts 343°
2026-05-04 18:26 37.17933 -122.04185 9662 ft 273 kts 342°
2026-05-04 18:27 37.19684 -122.04870 9339 ft 254 kts 342°
2026-05-04 18:27 37.21336 -122.05518 9043 ft 244 kts 342°
2026-05-04 18:27 37.22978 -122.06162 8793 ft 260 kts 341°
2026-05-04 18:27 37.24764 -122.06866 8485 ft 272 kts 341°
2026-05-04 18:28 37.26538 -122.07561 8137 ft 261 kts 341°
2026-05-04 18:28 37.28222 -122.08222 7777 ft 248 kts 341°
2026-05-04 18:28 37.29905 -122.08884 7489 ft 261 kts 341°
2026-05-04 18:28 37.31677 -122.09583 7141 ft 269 kts 341°
2026-05-04 18:29 37.33466 -122.10286 6780 ft 271 kts 341°
2026-05-04 18:29 37.35269 -122.10996 6421 ft 272 kts 341°
2026-05-04 18:29 37.37011 -122.11682 6044 ft 255 kts 341°
2026-05-04 18:29 37.38693 -122.12310 5728 ft 254 kts 343°
2026-05-04 18:30 37.42166 -122.13487 5122 ft 259 kts 343°
2026-05-04 18:30 37.43898 -122.14077 4797 ft 257 kts 344°
2026-05-04 18:30 37.45622 -122.14665 4480 ft 255 kts 344°
2026-05-04 18:31 37.47325 -122.15237 4177 ft 249 kts 345°
2026-05-04 18:31 37.48937 -122.15763 3870 ft 230 kts 345°
2026-05-04 18:31 37.50429 -122.16248 3599 ft 216 kts 345°
2026-05-04 18:31 37.51873 -122.16720 3389 ft 213 kts 345°
2026-05-04 18:32 37.53258 -122.17290 3123 ft 205 kts 327°
2026-05-04 18:32 37.54108 -122.18591 3026 ft 187 kts 295°
2026-05-04 18:32 37.54707 -122.20025 2934 ft 186 kts 300°
2026-05-04 18:32 37.55369 -122.21473 2567 ft 189 kts 298°
2026-05-04 18:33 37.55995 -122.22929 2315 ft 188 kts 297°
2026-05-04 18:33 37.56603 -122.24374 2038 ft 185 kts 297°
2026-05-04 18:33 37.57198 -122.25796 1773 ft 181 kts 297°
2026-05-04 18:33 37.57775 -122.27173 1521 ft 173 kts 297°
2026-05-04 18:34 37.58313 -122.28454 1302 ft 157 kts 296°
2026-05-04 18:34 37.58788 -122.29590 1109 ft 140 kts 295°
2026-05-04 18:34 37.59224 -122.30624 963 ft 130 kts 295°
2026-05-04 18:34 37.59650 -122.31645 792 ft 133 kts 295°
2026-05-04 18:35 37.60083 -122.32676 590 ft 133 kts 295°
2026-05-04 18:35 37.60511 -122.33704 411 ft 133 kts 295°
2026-05-04 18:35 37.60937 -122.34713 247 ft 133 kts 296°
2026-05-04 18:35 37.61370 -122.35754 66 ft 135 kts 296°
2026-05-04 18:36 37.61794 -122.36774 27 ft 119 kts 297°
2026-05-04 18:36 37.62121 -122.37550 26 ft 84 kts 298°
2026-05-04 18:36 37.62338 -122.38063 26 ft 46 kts 298°
2026-05-04 18:36 37.62448 -122.38328 26 ft 29 kts 297°
2026-05-04 18:37 37.62505 -122.38563 26 ft 28 kts 268°
2026-05-04 18:37 37.62498 -122.38771 26 ft 18 kts 266°
2026-05-04 18:37 37.62428 -122.38893 26 ft 18 kts 208°
2026-05-04 18:37 37.62346 -122.38948 26 ft 9 kts 208°
2026-05-04 18:38 37.62301 -122.38971 26 ft 6 kts 171°
2026-05-04 18:38 37.62271 -122.38927 26 ft 7 kts 122°
2026-05-04 18:38 37.62235 -122.38843 26 ft 12 kts 118°
2026-05-04 18:38 37.62184 -122.38770 26 ft 11 kts 159°
2026-05-04 18:39 37.62120 -122.38757 26 ft 7 kts 175°
2026-05-04 18:39 37.62098 -122.38760 26 ft 3 kts 202°
2026-05-04 18:39 37.62089 -122.38767 25 ft 3 kts 209°
2026-05-04 18:39 37.62079 -122.38773 26 ft 0 kts 208°